This demonstration page uses our WeatherBlox Daily Observations layout. Learn more.

Left ArrowRight Arrow

39.01783, -85.05884

Hourly Observations for June 11, 2021

Temp ( °F °C ) Dew Point ( °F °C ) Humidity (%) Winds ( mph kmh ) Pressure ( in mb ) Visibility ( mi km ) Precip ( " mm )
12:52 am 00:52 Mostly Cloudy 73 22.8 69 20.6 87 87 N N/A 29.83 1010 10 16.0934 N/A
1:52 am 01:52 Mostly Cloudy 72 22.2 69 20.6 91 91 N N/A 29.83 1010 10 16.0934 N/A
2:50 am 02:50 Cloudy with Mist and Fog 72 22 70 21 94 94 W 3 6 29.83 1010 5 8.0467 N/A
2:52 am 02:52 Cloudy with Mist and Fog 72 22.2 69 20.6 91 91 W 3 6 29.83 1010 5 8.0467 N/A
2:54 am 02:54 Cloudy with Mist and Fog 72 22.2 69 20.6 91 91 W 5 7 29.83 1010 5 8.0467 N/A
3:01 am 03:01 Cloudy with Mist and Fog 72 22.2 69 20.6 91 91 W 3 6 29.83 1010 4 6.43736 N/A
3:42 am 03:42 Partly Cloudy with Mist and Fog 71 21.7 69 20.6 94 94 N N/A 29.81 1010 5 8.0467 N/A
3:52 am 03:52 Mostly Cloudy with Mist and Fog 71 21.7 69 20.6 94 94 N N/A 29.81 1010 5 8.0467 N/A
4:52 am 04:52 Cloudy with Mist and Fog 71 21.7 69 20.6 94 94 W 5 7 29.81 1010 6 9.65604 N/A
5:52 am 05:52 Mostly Cloudy with Light Rain 70 21.1 68 20 93 93 W 5 7 29.8 1009 10 16.0934 0.001 0.001
6:52 am 06:52 Mostly Cloudy with Mist and Fog 71 21.7 68 20 90 90 WSW 5 7 29.8 1009 5 8.0467 0.001 0.001
7:52 am 07:52 Cloudy 72 22.2 69 20.6 91 91 N N/A 29.81 1010 7 11.26538 N/A
8:52 am 08:52 Mostly Cloudy 73 22.8 69 20.6 87 87 WSW 3 6 29.82 1010 8 12.87472 N/A
9:52 am 09:52 Mostly Cloudy 78 25.6 71 21.7 79 79 W 7 11 29.82 1010 8 12.87472 N/A
10:52 am 10:52 Cloudy 80 26.7 70 21.1 71 71 WNW 6 9 29.82 1010 9 14.48406 N/A
11:52 am 11:52 Mostly Cloudy 80 26.7 70 21.1 71 71 NW 9 15 29.82 1010 10 16.0934 N/A
11:57 am 11:57 Mostly Cloudy with Nearby Thunderstorms 81 27.2 70 21.1 69 69 NW 9 15 29.81 1009 10 16.0934 N/A
12:31 pm 12:31 Mostly Cloudy 83 28.3 71 21.7 67 67 NW 9 15 29.79 1009 10 16.0934 N/A
12:52 pm 12:52 Mostly Cloudy 84 28.9 71 21.7 65 65 WNW 8 13 29.8 1009 10 16.0934 N/A
1:52 pm 13:52 Mostly Cloudy 83 28.3 71 21.7 67 67 VRB 5 7 29.8 1009 10 16.0934 N/A
2:52 pm 14:52 Mostly Cloudy with Thunderstorms 86 30 71 21.7 61 61 N 6 9 29.77 1008 10 16.0934 0.001 0.001
3:09 pm 15:09 Mostly Cloudy 83 28.3 70 21.1 65 65 VRB 6 9 29.75 1008 10 16.0934 N/A
3:27 pm 15:27 Mostly Cloudy with Nearby Thunderstorms 84 28.9 69 20.6 61 61 NNW 5 7 29.74 1007 10 16.0934 N/A
3:52 pm 15:52 Cloudy with Nearby Thunderstorms 82 27.8 71 21.7 69 69 SSW 7 11 29.76 1008 10 16.0934 N/A
4:00 pm 16:00 Cloudy with Thunderstorms 80 26.7 70 21.1 71 71 SSW 6 9 29.75 1007 10 16.0934 N/A
4:20 pm 16:20 Cloudy with Nearby Thunderstorms 80 26.7 71 21.7 74 74 ENE 5 7 29.76 1008 10 16.0934 N/A
4:46 pm 16:46 Cloudy with Thunderstorms 77 25 72 22 83 83 S 6 9 29.75 1008 10 16.0934 0.08 2.032
4:52 pm 16:52 Cloudy with Thunderstorms 78 25.6 72 22.2 82 82 S 8 13 29.77 1008 10 16.0934 0.08 2.032
5:06 pm 17:06 Cloudy with Light Thunderstorms 77 25 71 21.7 82 82 WNW 12 19 29.76 1008 6 9.65604 0.001 0.001
5:08 pm 17:08 Cloudy with Heavy Thunderstorms 76 24.4 71 21.7 85 85 W 5 7 29.76 1008 1.75 2.816345 0.01 0.254
5:12 pm 17:12 Cloudy with Thunderstorms 75 23.9 71 21.7 88 88 N N/A 29.76 1008 6 9.65604 0.18 4.572
5:27 pm 17:27 Mostly Cloudy with Nearby Thunderstorms 75 23.9 71 21.7 88 88 S 5 7 29.75 1007 9 14.48406 0.21 5.334
5:52 pm 17:52 Mostly Cloudy 75 23.9 72 22.2 90 90 SW 5 7 29.75 1008 10 16.0934 0.21 5.334
6:52 pm 18:52 Mostly Cloudy 76 24.4 70 21.1 82 82 N N/A 29.75 1007 10 16.0934 N/A
7:01 pm 19:01 Mostly Cloudy with Nearby Thunderstorms 76 24.4 71 21.7 85 85 S 5 7 29.74 1007 10 16.0934 N/A
7:47 pm 19:47 Mostly Cloudy 77 25 70 21 79 79 N N/A 29.76 1008 10 16.0934 N/A
7:52 pm 19:52 Mostly Cloudy 77 25 69 20.6 77 77 SW 5 7 29.76 1008 10 16.0934 N/A
8:52 pm 20:52 Mostly Cloudy 75 23.9 69 20.6 82 82 WNW 3 6 29.78 1008 10 16.0934 N/A
9:52 pm 21:52 Partly Cloudy 73 22.8 69 20.6 87 87 N N/A 29.79 1009 10 16.0934 N/A
10:52 pm 22:52 Cloudy 73 22.8 69 20.6 87 87 N N/A 29.81 1010 10 16.0934 0.001 0.001
11:52 pm 23:52 Partly Cloudy 71 21.7 69 20.6 94 94 S 5 7 29.8 1009 9 14.48406 N/A

Powered by AerisWeather